Location: Robert Ferguson Observatory
(38.4385°N, 122.5078°W)
Time: 05:15:35
(UTC-07:00)

Daily predictions for brighter satellites

Satellite Brightness Start Highest point End
(mag) Time Altitude Azimuth Time Altitude Azimuth Time Altitude Azimuth
ATLAS 2AS CENTAUR R/B 4.3 02:47:44 35° NE 02:47:44 35° NE 02:51:59 10° NE
CZ-2D R/B 4.2 03:30:14 10° NNE 03:32:06 22° NNE 03:32:06 22° NNE
Cosmos 2344 4.1 03:36:25 53° ESE 03:36:25 53° ESE 03:44:04 10° NE
SL-16 R/B 4.1 03:48:05 26° N 03:48:05 26° N 03:50:39 10° N
Lacrosse 5 3.9 03:59:41 22° ESE 03:59:41 22° ESE 04:02:33 10° ENE
Cosmos 2333 Rocket 4.1 03:55:23 10° N 04:00:09 26° ENE 04:04:53 10° ESE
Resurs 1-4 Rocket 3.6 04:02:36 10° N 04:05:07 29° N 04:05:07 29° N
Cosmos 1821 Rocket 4.3 04:04:42 10° N 04:10:11 65° NNE 04:10:11 65° NNE
CZ-4C R/B 2.8 04:11:39 86° N 04:11:49 88° ENE 04:19:43 10° SSE
NOSS 3-4 (A) 4.2 04:13:49 44° SE 04:14:33 46° ESE 04:20:40 10° NE
NOSS 3-4 (C) 4.2 04:13:53 43° SE 04:14:40 45° ESE 04:20:46 10° NE
Cosmos 1934 Rocket 4.1 04:10:32 10° N 04:16:49 69° E 04:17:29 64° ESE
CZ-4B R/B 4.2 04:22:20 10° NNE 04:27:26 41° E 04:29:48 27° SSE
Cosmos 2237 Rocket 3.6 04:24:56 10° N 04:30:08 36° ENE 04:35:17 10° SE
Okean O Rocket 2.6 04:28:09 10° NNE 04:31:36 46° ENE 04:31:36 46° ENE
ATLAS 2AS CENTAUR R/B 4.1 04:35:11 27° NW 04:35:51 27° NW 04:42:34 10° NNE
Cosmos 2219 4.2 04:41:56 33° NNW 04:41:56 33° NNW 04:45:42 10° N
Cosmos 1980 4.5 04:37:54 10° NNW 04:43:27 51° ENE 04:48:57 10° SE
ATLAS 5 CENTAUR R/B 3.6 04:37:47 10° NNW 04:43:28 42° NE 04:49:33 10° ESE
SL-16 R/B 4.5 04:43:33 10° N 04:48:04 24° NE 04:52:33 10° ESE
Cosmos 1743 3.8 04:44:44 10° N 04:48:24 43° E 04:49:02 39° ESE
Delta 2 Rocket 4.5 04:54:27 33° ESE 04:54:27 33° ESE 04:56:40 10° E
Okean 1-7 Rocket 3.9 04:56:50 56° N 04:56:50 56° N 05:00:23 10° N
CZ-4B R/B 3.1 04:55:02 10° NNE 04:59:25 80° ESE 05:00:06 63° S
Cosmos 2227 Rocket 2.1 04:59:04 44° SSW 05:00:57 85° ESE 05:06:39 10° NNE
Cosmos 773 Rocket 3.8 05:01:00 10° NNW 05:06:12 67° WSW 05:11:19 10° S
Cosmos 1607 4.3 05:07:37 41° SW 05:07:37 41° SW 05:12:26 10° S
NOSS 3-2 (A) 4.0 04:58:59 10° NNW 05:06:35 87° ENE 05:14:43 10° SSE
ADEOS II 3.0 05:03:39 10° NNE 05:08:44 48° E 05:13:48 10° S
Cosmos 2297 Rocket 2.3 05:07:17 25° S 05:10:42 73° ESE 05:16:21 10° NNE
USA 238 DEB 4.0 05:10:39 40° WSW 05:10:58 40° WSW 05:17:24 10° S
ISS -1.1 05:13:16 17° SSE 05:13:16 17° SSE 05:14:12 10° SSE
USA 238 4.0 05:10:33 40° WSW 05:11:04 40° WSW 05:17:31 10° S
Cosmos 2219 Rocket 2.1 05:05:53 10° NNW 05:11:32 64° WSW 05:17:07 10° S
Lacrosse 5 rocket 3.4 05:12:55 18° NNW 05:12:56 18° NNW 05:16:07 10° NNE
Okean 2 4.5 05:09:17 10° SSE 05:13:15 45° E 05:17:13 10° NNE
CZ-2D R/B 3.8 05:11:22 10° NNW 05:13:26 17° NW 05:13:26 17° NW
Cosmos 1777 Rocket 4.5 05:18:26 38° WNW 05:18:39 38° WNW 05:23:34 10° N
Cosmos 220 Rocket 3.8 05:17:48 51° SSW 05:18:48 81° WNW 05:23:02 10° NNE
PSLV R/B 3.8 05:14:52 10° NNE 05:19:12 70° E 05:23:09 12° S
CZ-4B DEB 4.1 05:16:55 10° N 05:22:21 67° WNW 05:25:56 22° SSW
Cosmos 1727 Rocket 4.1 05:21:08 23° SSW 05:24:57 55° W 05:31:09 10° N
PAYLOAD B 4.4 05:23:34 10° N 05:28:53 51° WNW 05:31:47 26° SW
Okean-O 2.7 05:27:46 10° NNE 05:32:13 78° ESE 05:36:39 10° S
OTV 4 0.5 05:35:21 55° SSE 05:35:21 55° SSE 05:37:50 10° ESE
Cosmos 2173 Rocket 4.0 05:30:38 10° N 05:36:45 80° E 05:42:53 10° S
Cosmos 2228 4.2 05:32:49 10° N 05:37:04 46° E 05:41:16 10° SSE
Cosmos 2112 Rocket 3.9 05:31:59 10° NNW 05:37:17 74° WSW 05:42:30 10° S
Cosmos 2082 3.9 05:36:36 26° SW 05:39:32 49° WNW 05:45:00 10° NNE
Lacrosse 5 2.1 05:38:55 29° WSW 05:41:13 53° NW 05:46:11 10° NE
Cosmos 1680 Rocket 3.5 05:37:22 10° NNW 05:42:32 55° WSW 05:47:38 10° S
NOSS 3-2 (C) 4.0 05:35:41 10° NW 05:43:16 71° WSW 05:51:20 10° SSE
Cosmos 2333 Rocket 2.5 05:39:13 10° NW 05:44:34 43° WSW 05:49:52 10° S
Cosmos 2058 Rocket 3.1 05:40:16 10° N 05:44:39 83° E 05:49:00 10° S
Meteor 1-19 Rocket 4.5 05:41:19 14° SW 05:45:52 45° WNW 05:51:16 10° N
Cosmos 1459 Rocket 4.0 05:41:02 10° N 05:47:26 82° W 05:53:44 10° S
CENTAUR R/B 4.1 05:40:43 10° NNW 05:48:12 47° NE 05:56:07 10° ESE
Aureole 2 Rocket 4.1 05:49:57 10° N 05:53:14 35° ENE 05:56:13 10° SE
ADEOS Rocket 3.4 05:47:11 10° N 05:54:11 53° WNW 06:00:29 10° SW
Cosmos 2298 Rocket 4.0 05:51:03 10° SSW 05:56:20 81° WNW 06:01:41 10° NNE
COSMO-SKYMED 1 4.2 05:54:26 10° SE 05:58:27 37° ENE 06:02:27 10° N
CZ-4C R/B 4.1 05:57:13 16° W 05:59:46 19° WSW 06:04:48 10° SSW
Tiangong 1 1.5 05:58:27 24° WNW 05:59:55 46° NNW 06:02:53 10° ENE
RESURS DK-1 3.1 05:58:42 20° WSW 06:00:55 34° WNW 06:04:43 10° N
Cosmos 1666 3.0 05:57:18 10° NNW 06:01:01 44° W 06:04:40 10° SSW
Thor Agena Rocket 4.0 05:57:37 10° SSW 06:02:31 38° W 06:07:27 10° NNW
Hubble Space Telescope 2.9 06:01:15 11° SW 06:02:47 13° SSW 06:04:41 10° SSE
USA 129 1.3 06:02:59 10° S 06:05:02 67° W 06:06:58 10° NNW
NOSS 3-4 (A) 4.3 06:01:18 16° W 06:05:34 34° NW 06:11:28 10° NNE
NOSS 3-4 (C) 4.3 06:01:22 16° WSW 06:05:40 34° NW 06:11:34 10° NNE
CZ-4B R/B 4.3 06:03:28 10° NNW 06:07:45 25° WNW 06:11:41 12° WSW
Okean O Rocket 3.4 06:06:14 10° NW 06:08:21 13° WNW 06:09:03 13° WNW
BREEZE-M DEB (TANK) 3.4 06:05:59 10° NNW 06:08:26 34° NE 06:11:52 10° ESE
Meteor 2-4 Rocket 4.2 06:03:16 10° SW 06:08:40 40° WNW 06:14:14 10° N
Cosmos 292 Rocket 3.8 06:04:07 10° NNW 06:08:54 57° WSW 06:13:38 10° S
Cosmos 2150 Rocket 3.9 06:06:30 10° SSW 06:11:37 67° WNW 06:16:45 10° NNE
Cosmos 2237 Rocket 2.9 06:09:15 10° NW 06:14:01 29° WSW 06:18:46 10° SSW
SL-24 R/B 4.3 06:10:14 10° NNE 06:14:41 70° E 06:18:34 10° S
Cosmos 1025 Rocket 4.5 06:13:11 13° WSW 06:15:27 18° WNW 06:18:30 10° NNW
Cosmos 2098 Rocket 2.9 06:12:45 10° NNW 06:16:30 71° W 06:21:16 10° S
Cosmos 1346 Rocket 3.9 06:13:50 10° SW 06:17:04 24° WNW 06:20:21 10° NNW
Cosmos 1626 Rocket 3.5 06:15:53 10° S 06:20:17 81° W 06:24:41 10° N
CZ-4B R/B 3.9 06:16:43 10° N 06:20:35 52° WNW 06:24:17 10° SSW
CZ-3A R/B 3.5 06:20:12 10° NW 06:24:48 86° SW 06:39:13 10° SE
DELTA 2 R/B (1) 3.7 06:21:36 10° WSW 06:27:10 80° SSE 06:32:46 10° ENE
ATLAS 5 CENTAUR R/B 3.0 06:22:37 10° NW 06:28:10 36° WSW 06:34:03 10° S
Cosmos 2061 Rocket 4.5 06:22:30 10° NNW 06:28:17 39° W 06:34:07 10° SSW
Ariane Rocket 3.2 06:23:30 10° NNE 06:28:38 80° ESE 06:33:44 10° S
Cosmos 990 Rocket 4.0 06:24:42 10° SSW 06:29:57 80° WNW 06:35:14 10° NNE
OPS 6432 4.3 06:27:31 10° SW 06:31:03 61° WNW 06:34:07 10° NNE
Radarsat Rocket 4.2 06:24:41 10° NNE 06:31:34 82° WNW 06:37:40 10° SSW
SL-16 R/B 2.4 06:26:58 10° NNW 06:32:26 49° WSW 06:37:51 10° S
Cosmos 1802 Rocket 4.4 06:29:35 10° NNW 06:35:13 38° W 06:40:48 10° SSW
Delta 2 Rocket 3.4 06:31:54 10° W 06:35:26 48° S 06:38:44 10° ESE
